Tracking 20040 objects as of 19-Nov-2019
Live streaming from Space Station
objects crossing your sky now

FLOCK 2E 4


FLOCK 2E 4 is no longer on orbit
FLOCK 2E 4 is classified as:


NORAD ID: 41487
Int'l Code: 1998-067JH
Perigee: N/A
Apogee: N/A
Inclination: N/A
Period: N/A
Semi major axis: N/A
RCS: N/A
Launch date: November 20, 1998
Source: United States (US)
Launch site: TYURATAM MISSILE AND SPACE COMPLEX (TTMTR)
Decay date: 2018-03-11
aabbcc
Your satellite tracking list
Your tracking list is empty




NASA's NSSDC Master Catalog

Two Line Element Set (TLE):
1 41487U 98067JH  18070.31675234  .14212785  12501-4  82846-3 0  9995
2 41487  51.6109  75.1635 0003380  16.6517 345.1183 16.41744848103922
Source of the keplerian elements: AFSPC